Location: Cold Norton
(51.6667°N, 0.6667°E)
Time: 13:54:06
(UTC+00:00)

SL-16 R/B - Visible Passes

Search period start: 14 February 2026 00:00
Search period end: 24 February 2026 00:00
Orbit: 985 x 1007 km, 99.8° (Epoch: 13 February)

Date Brightness Start Highest point End Pass type
(mag) Time Alt. Az. Time Alt. Az. Time Alt. Az.
14 Feb 5.2 00:57:15 11° NNE 00:57:15 11° NNE 00:58:11 10° NNE visible
14 Feb 4.6 02:42:19 18° N 02:42:19 18° N 02:43:58 10° N visible
14 Feb 4.6 04:27:23 11° NNW 04:27:23 11° NNW 04:27:41 10° NNW visible
14 Feb 4.5 18:37:47 10° N 18:42:51 27° NW 18:47:55 10° WSW visible
15 Feb 5.0 01:28:05 15° NNE 01:28:05 15° NNE 01:30:00 10° N visible
15 Feb 4.4 03:13:08 20° N 03:13:08 20° N 03:14:50 10° NNW visible
15 Feb 5.0 19:09:00 10° N 19:13:06 19° NW 19:17:12 10° W visible
16 Feb 4.7 01:58:53 19° NNE 01:58:53 19° NNE 02:01:15 10° N visible
16 Feb 4.3 03:43:57 20° NNW 03:43:57 20° NNW 03:45:36 10° NNW visible
16 Feb 3.6 17:55:09 10° N 18:01:02 47° WNW 18:06:56 10° SW visible
16 Feb 5.2 19:40:34 10° NNW 19:43:13 13° NW 19:45:52 10° WNW visible
17 Feb 5.3 00:44:38 10° NE 00:44:53 10° NE 00:45:24 10° NNE visible
17 Feb 4.4 02:29:41 24° NNE 02:29:41 24° NNE 02:32:19 10° N visible
17 Feb 4.2 04:14:45 18° NNW 04:14:45 18° NNW 04:16:13 10° NNW visible
17 Feb 4.3 18:26:07 10° N 18:31:27 32° NW 18:36:49 10° WSW visible
18 Feb 5.0 01:15:25 15° NE 01:15:25 15° NE 01:18:08 10° N visible
18 Feb 4.1 03:00:28 27° N 03:00:28 27° N 03:03:15 10° N visible
18 Feb 4.3 04:45:32 15° NW 04:45:32 15° NW 04:46:38 10° NNW visible
18 Feb 4.8 18:57:14 10° N 19:01:45 22° NW 19:06:17 10° W visible
19 Feb 4.7 01:46:11 20° NE 01:46:11 20° NE 01:49:33 10° N visible
19 Feb 3.8 03:31:14 29° NNW 03:31:14 29° NNW 03:34:04 10° NNW visible
19 Feb 4.4 05:16:18 11° NW 05:16:18 11° NW 05:16:42 10° NW visible
19 Feb 3.4 17:43:32 10° N 17:49:35 55° WNW 17:55:37 10° SW visible
19 Feb 5.1 19:28:37 10° N 19:31:55 15° NW 19:35:14 10° WNW visible
20 Feb 4.2 02:16:57 27° NNE 02:16:57 27° NNE 02:20:40 10° N visible
20 Feb 3.7 04:02:00 27° NNW 04:02:00 27° NNW 04:04:44 10° NNW visible
20 Feb 4.1 18:14:27 10° N 18:20:03 37° WNW 18:25:39 10° WSW visible
20 Feb 5.4 20:01:01 10° NNW 20:01:58 10° NW 20:02:55 10° NW visible
21 Feb 5.1 01:02:38 12° NE 01:03:37 13° NE 01:06:10 10° NNE visible
21 Feb 3.8 02:47:42 36° NNE 02:47:42 36° NNE 02:51:38 10° N visible
21 Feb 3.8 04:32:45 23° NW 04:32:45 23° NW 04:35:14 10° NNW visible
21 Feb 4.7 18:45:30 10° N 18:50:24 25° NW 18:55:17 10° WSW visible
22 Feb 4.7 01:33:21 18° NE 01:33:44 19° NE 01:37:47 10° N visible
22 Feb 3.3 03:18:25 43° N 03:18:25 43° N 03:22:29 10° NNW visible
22 Feb 4.0 05:03:28 18° NW 05:03:28 18° NW 05:05:29 10° NW visible
22 Feb 5.0 19:16:45 10° N 19:20:36 17° NW 19:24:28 10° W visible
23 Feb 4.3 02:04:04 27° NE 02:04:04 27° NE 02:08:59 10° N visible
23 Feb 3.1 03:49:07 44° NNW 03:49:07 44° NNW 03:53:14 10° NNW visible
23 Feb 4.2 05:34:10 12° WNW 05:34:10 12° WNW 05:35:09 10° NW visible
23 Feb 3.8 18:02:49 10° N 18:08:37 43° WNW 18:14:25 10° SW visible
23 Feb 5.3 19:48:29 10° NNW 19:50:42 12° NW 19:52:55 10° WNW visible
